BAW9126 HEAX-LGAV

Flight info

Callsign BAW9126
Flight time 1h 22m
Altitude 36000
Route NOZ L551 ANTAR DCT RIPLI UL995 VARIX
Aircraft A319/M-SDE3FGIJ1KRWXY/LB1

Departure

Time 2026-04-17 08:49
Airport Alexandria International Airport (HEAX)

Arrival

Time 2026-04-17 10:11
Airport Athens Eleftherios Venizelos International Airport (LGAV)
Time Latitude Longitude Altitude Speed Heading
2026-04-17 08:31 30.93099 29.69640 167 ft 0 kts 38°
2026-04-17 08:42 30.93082 29.69623 166 ft 4 kts 40°
2026-04-17 08:43 30.93062 29.69603 166 ft 4 kts 39°
2026-04-17 08:43 30.93040 29.69584 166 ft 4 kts 33°
2026-04-17 08:43 30.93017 29.69570 166 ft 3 kts 13°
2026-04-17 08:43 30.93012 29.69568 166 ft 0 kts 10°
2026-04-17 08:46 30.93018 29.69569 166 ft 2 kts
2026-04-17 08:46 30.93041 29.69560 166 ft 6 kts 330°
2026-04-17 08:46 30.93079 29.69505 167 ft 11 kts 308°
2026-04-17 08:46 30.93144 29.69440 167 ft 14 kts 326°
2026-04-17 08:47 30.93227 29.69371 168 ft 16 kts 323°
2026-04-17 08:47 30.93243 29.69259 168 ft 17 kts 235°
2026-04-17 08:47 30.93161 29.69133 167 ft 23 kts 232°
2026-04-17 08:47 30.93053 29.68969 166 ft 28 kts 232°
2026-04-17 08:48 30.92927 29.68775 164 ft 28 kts 233°
2026-04-17 08:48 30.92824 29.68698 162 ft 18 kts 156°
2026-04-17 08:48 30.92802 29.68715 162 ft 0 kts 144°
2026-04-17 08:48 30.92665 29.68834 161 ft 57 kts 143°
2026-04-17 08:49 30.92179 29.69256 163 ft 116 kts 143°
2026-04-17 08:49 30.91403 29.69944 217 ft 161 kts 145°
2026-04-17 08:49 30.90491 29.70732 810 ft 163 kts 147°
2026-04-17 08:49 30.89585 29.71528 1462 ft 165 kts 147°
2026-04-17 08:50 30.88642 29.72370 1920 ft 182 kts 147°
2026-04-17 08:50 30.87532 29.73204 2390 ft 196 kts 157°
2026-04-17 08:50 30.86301 29.74089 2742 ft 227 kts 137°
2026-04-17 08:50 30.85611 29.75868 3181 ft 263 kts 97°
2026-04-17 08:51 30.85996 29.78025 3817 ft 286 kts 60°
2026-04-17 08:51 30.87420 29.79638 4788 ft 291 kts 26°
2026-04-17 08:51 30.89331 29.80431 5778 ft 294 kts 12°
2026-04-17 08:51 30.91336 29.81018 6721 ft 300 kts 13°
2026-04-17 08:52 30.93385 29.81608 7576 ft 307 kts 13°
2026-04-17 08:52 30.95482 29.82209 8427 ft 313 kts 13°
2026-04-17 08:52 30.97573 29.82975 9199 ft 319 kts 21°
2026-04-17 08:52 30.99624 29.84019 9953 ft 325 kts 27°
2026-04-17 08:53 31.01721 29.85240 10238 ft 348 kts 28°
2026-04-17 08:53 31.03943 29.86594 10487 ft 371 kts 29°
2026-04-17 08:53 31.06266 29.88002 11023 ft 382 kts 28°
2026-04-17 08:53 31.08659 29.89418 11663 ft 389 kts 28°
2026-04-17 08:54 31.11113 29.90831 12297 ft 397 kts 27°
2026-04-17 08:54 31.13655 29.92168 12929 ft 404 kts 19°
2026-04-17 08:54 31.16360 29.92936 13594 ft 408 kts
2026-04-17 08:54 31.19199 29.93068 14270 ft 408 kts 353°
2026-04-17 08:55 31.21997 29.92558 14951 ft 406 kts 340°
2026-04-17 08:55 31.24631 29.91417 15646 ft 401 kts 327°
2026-04-17 08:55 31.27097 29.89891 16325 ft 403 kts 324°
2026-04-17 08:55 31.29578 29.88334 16996 ft 405 kts 324°
2026-04-17 08:56 31.32070 29.86766 17667 ft 408 kts 324°
2026-04-17 08:56 31.34586 29.85185 18311 ft 411 kts 324°
2026-04-17 08:56 31.37112 29.83598 18951 ft 414 kts 324°
2026-04-17 08:56 31.39658 29.82003 19600 ft 416 kts 324°
2026-04-17 08:57 31.42221 29.80396 20240 ft 419 kts 324°
2026-04-17 08:57 31.44796 29.78784 20878 ft 421 kts 324°
2026-04-17 08:57 31.47387 29.77164 21484 ft 423 kts 324°
2026-04-17 08:57 31.49988 29.75537 22060 ft 425 kts 323°
2026-04-17 08:58 31.52601 29.73897 22605 ft 427 kts 323°
2026-04-17 08:58 31.55198 29.72263 23124 ft 430 kts 323°
2026-04-17 08:58 31.57834 29.70602 23640 ft 432 kts 323°
2026-04-17 08:58 31.60487 29.68928 24129 ft 434 kts 323°
2026-04-17 08:59 31.63158 29.67247 24613 ft 436 kts 323°
2026-04-17 08:59 31.65834 29.65561 25103 ft 438 kts 322°
2026-04-17 08:59 31.68524 29.63861 25569 ft 440 kts 322°
2026-04-17 08:59 31.71224 29.62151 26014 ft 442 kts 322°
2026-04-17 09:00 31.73940 29.60433 26440 ft 444 kts 322°
2026-04-17 09:00 31.76669 29.58710 26884 ft 446 kts 322°
2026-04-17 09:00 31.79408 29.56983 27310 ft 448 kts 322°
2026-04-17 09:00 31.82160 29.55247 27729 ft 449 kts 322°
2026-04-17 09:01 31.84917 29.53504 28142 ft 451 kts 322°
2026-04-17 09:01 31.87682 29.51751 28553 ft 452 kts 322°
2026-04-17 09:01 31.90464 29.49984 28943 ft 454 kts 321°
2026-04-17 09:01 31.93245 29.48214 29318 ft 455 kts 321°
2026-04-17 09:02 31.96037 29.46436 29701 ft 457 kts 321°
2026-04-17 09:02 31.98838 29.44650 30041 ft 459 kts 321°
2026-04-17 09:02 32.01616 29.42882 30392 ft 460 kts 321°
2026-04-17 09:02 32.04444 29.41085 30686 ft 463 kts 322°
2026-04-17 09:03 32.07282 29.39282 30943 ft 466 kts 322°
2026-04-17 09:03 32.10145 29.37462 31247 ft 467 kts 322°
2026-04-17 09:03 32.13005 29.35643 31651 ft 466 kts 321°
2026-04-17 09:03 32.15854 29.33829 32081 ft 465 kts 322°
2026-04-17 09:04 32.18697 29.32018 32521 ft 463 kts 322°
2026-04-17 09:04 32.21521 29.30218 32956 ft 461 kts 321°
2026-04-17 09:04 32.24335 29.28420 33392 ft 459 kts 321°
2026-04-17 09:04 32.27139 29.26624 33796 ft 458 kts 321°
2026-04-17 09:05 32.29942 29.24827 34210 ft 457 kts 321°
2026-04-17 09:05 32.32731 29.23037 34623 ft 456 kts 321°
2026-04-17 09:05 32.35512 29.21251 35011 ft 455 kts 321°
2026-04-17 09:05 32.38296 29.19459 35348 ft 455 kts 321°
2026-04-17 09:06 32.41073 29.17673 35643 ft 455 kts 321°
2026-04-17 09:06 32.46616 29.14104 35723 ft 452 kts 321°
2026-04-17 09:07 32.52137 29.10547 35721 ft 451 kts 321°
2026-04-17 09:07 32.57653 29.06980 35719 ft 452 kts 321°
2026-04-17 09:08 32.63176 29.03400 35720 ft 452 kts 322°
2026-04-17 09:08 32.68673 28.99854 35719 ft 453 kts 322°
2026-04-17 09:09 32.74200 28.96272 35712 ft 453 kts 322°
2026-04-17 09:09 32.79736 28.92672 35707 ft 453 kts 322°
2026-04-17 09:10 32.88047 28.87275 35698 ft 455 kts 322°
2026-04-17 09:10 32.93598 28.83653 35694 ft 455 kts 322°
2026-04-17 09:11 32.99154 28.80017 35692 ft 456 kts 322°
2026-04-17 09:11 33.04721 28.76383 35690 ft 456 kts 322°
2026-04-17 09:12 33.10296 28.72739 35690 ft 457 kts 322°
2026-04-17 09:12 33.15880 28.69082 35693 ft 458 kts 322°
2026-04-17 09:13 33.21436 28.65431 35695 ft 459 kts 323°
2026-04-17 09:13 33.27041 28.61748 35697 ft 460 kts 323°
2026-04-17 09:14 33.32648 28.58057 35696 ft 461 kts 323°
2026-04-17 09:14 33.38269 28.54359 35696 ft 461 kts 323°
2026-04-17 09:15 33.43895 28.50648 35691 ft 462 kts 323°
2026-04-17 09:15 33.49531 28.46915 35684 ft 463 kts 324°
2026-04-17 09:16 33.55179 28.43177 35680 ft 464 kts 324°
2026-04-17 09:16 33.60897 28.39378 35703 ft 477 kts 324°
2026-04-17 09:17 33.66790 28.35465 35702 ft 488 kts 324°
2026-04-17 09:17 33.72709 28.31535 35701 ft 490 kts 325°
2026-04-17 09:18 33.78681 28.27557 35701 ft 491 kts 325°
2026-04-17 09:18 33.84514 28.23346 35701 ft 488 kts 321°
2026-04-17 09:19 33.90136 28.18785 35698 ft 487 kts 320°
2026-04-17 09:19 33.95730 28.14166 35693 ft 488 kts 320°
2026-04-17 09:20 34.01381 28.09631 35691 ft 489 kts 321°
2026-04-17 09:20 34.07081 28.05114 35691 ft 489 kts 321°
2026-04-17 09:21 34.12725 28.00624 35691 ft 489 kts 321°
2026-04-17 09:21 34.18401 27.96069 35694 ft 489 kts 321°
2026-04-17 09:22 34.24077 27.91504 35695 ft 489 kts 321°
2026-04-17 09:22 34.29750 27.86940 35693 ft 490 kts 321°
2026-04-17 09:23 34.35428 27.82378 35690 ft 490 kts 321°
2026-04-17 09:23 34.41104 27.77809 35689 ft 490 kts 321°
2026-04-17 09:24 34.46778 27.73233 35690 ft 490 kts 321°
2026-04-17 09:24 34.52355 27.68501 35688 ft 488 kts 319°
2026-04-17 09:25 34.57800 27.63562 35685 ft 488 kts 318°
2026-04-17 09:25 34.63210 27.58626 35684 ft 489 kts 319°
2026-04-17 09:26 34.68692 27.53714 35684 ft 490 kts 320°
2026-04-17 09:26 34.74191 27.48814 35683 ft 490 kts 320°
2026-04-17 09:27 34.79692 27.43880 35677 ft 491 kts 320°
2026-04-17 09:27 34.85183 27.38929 35677 ft 492 kts 320°
2026-04-17 09:28 34.90649 27.34000 35678 ft 492 kts 320°
2026-04-17 09:28 34.96153 27.29036 35678 ft 493 kts 321°
2026-04-17 09:29 35.01674 27.24054 35679 ft 493 kts 321°
2026-04-17 09:29 35.07187 27.19060 35681 ft 493 kts 321°
2026-04-17 09:30 35.11759 27.14905 35680 ft 493 kts 321°
2026-04-17 09:30 35.17274 27.09900 35677 ft 493 kts 321°
2026-04-17 09:31 35.22789 27.04891 35675 ft 494 kts 321°
2026-04-17 09:31 35.28303 26.99866 35671 ft 494 kts 321°
2026-04-17 09:32 35.33814 26.94825 35676 ft 494 kts 321°
2026-04-17 09:32 35.39288 26.89816 35675 ft 494 kts 321°
2026-04-17 09:33 35.44798 26.84771 35673 ft 494 kts 322°
2026-04-17 09:33 35.50305 26.79718 35675 ft 494 kts 322°
2026-04-17 09:34 35.55801 26.74662 35679 ft 494 kts 322°
2026-04-17 09:34 35.61299 26.69595 35687 ft 494 kts 322°
2026-04-17 09:35 35.66795 26.64525 35691 ft 494 kts 322°
2026-04-17 09:35 35.72290 26.59445 35697 ft 494 kts 322°
2026-04-17 09:36 35.77782 26.54362 35705 ft 494 kts 322°
2026-04-17 09:36 35.83266 26.49267 35712 ft 494 kts 322°
2026-04-17 09:37 35.88752 26.44175 35718 ft 493 kts 323°
2026-04-17 09:37 35.94232 26.39081 35723 ft 493 kts 323°
2026-04-17 09:38 35.99676 26.33997 35729 ft 493 kts 323°
2026-04-17 09:38 36.05141 26.28881 35733 ft 493 kts 323°
2026-04-17 09:39 36.10608 26.23774 35735 ft 493 kts 323°
2026-04-17 09:39 36.16069 26.18655 35737 ft 492 kts 323°
2026-04-17 09:40 36.21545 26.13513 35743 ft 492 kts 323°
2026-04-17 09:40 36.26999 26.08374 35746 ft 492 kts 323°
2026-04-17 09:41 36.32451 26.03222 35752 ft 493 kts 323°
2026-04-17 09:41 36.37909 25.98062 35759 ft 493 kts 323°
2026-04-17 09:42 36.43333 25.92946 35769 ft 493 kts 323°
2026-04-17 09:42 36.48791 25.87787 35770 ft 493 kts 323°
2026-04-17 09:43 36.54231 25.82616 35782 ft 492 kts 323°
2026-04-17 09:43 36.59669 25.77435 35788 ft 492 kts 323°
2026-04-17 09:44 36.65109 25.72260 35791 ft 492 kts 323°
2026-04-17 09:44 36.70555 25.67061 35789 ft 492 kts 323°
2026-04-17 09:45 36.75983 25.61858 35796 ft 492 kts 323°
2026-04-17 09:45 36.81418 25.56646 35802 ft 492 kts 323°
2026-04-17 09:46 36.86855 25.51434 35815 ft 492 kts 323°
2026-04-17 09:46 36.92247 25.46256 35824 ft 492 kts 323°
2026-04-17 09:47 36.97674 25.41031 35809 ft 492 kts 323°
2026-04-17 09:47 37.00386 25.38411 35340 ft 491 kts 323°
2026-04-17 09:47 37.03091 25.35792 35100 ft 492 kts 323°
2026-04-17 09:48 37.05804 25.33163 34848 ft 493 kts 323°
2026-04-17 09:48 37.08517 25.30532 34601 ft 495 kts 324°
2026-04-17 09:48 37.11250 25.27883 34185 ft 497 kts 324°
2026-04-17 09:48 37.14004 25.25213 33130 ft 504 kts 324°
2026-04-17 09:49 37.16777 25.22525 32436 ft 502 kts 324°
2026-04-17 09:49 37.19530 25.19852 31717 ft 498 kts 324°
2026-04-17 09:49 37.22273 25.17189 30868 ft 498 kts 324°
2026-04-17 09:49 37.25010 25.14529 30225 ft 497 kts 324°
2026-04-17 09:50 37.27738 25.11875 29560 ft 496 kts 325°
2026-04-17 09:50 37.30463 25.09223 28917 ft 495 kts 325°
2026-04-17 09:50 37.33088 25.06584 28621 ft 482 kts 320°
2026-04-17 09:50 37.35344 25.03539 28251 ft 473 kts 309°
2026-04-17 09:51 37.37093 25.00056 27688 ft 469 kts 298°
2026-04-17 09:51 37.38298 24.96264 27071 ft 465 kts 289°
2026-04-17 09:51 37.39302 24.92413 26439 ft 461 kts 289°
2026-04-17 09:51 37.40303 24.88616 25817 ft 456 kts 290°
2026-04-17 09:52 37.41300 24.84875 25353 ft 441 kts 290°
2026-04-17 09:52 37.42256 24.81291 24842 ft 425 kts 290°
2026-04-17 09:52 37.43184 24.77800 24129 ft 416 kts 290°
2026-04-17 09:52 37.44091 24.74375 23387 ft 410 kts 290°
2026-04-17 09:53 37.44986 24.70980 22608 ft 404 kts 290°
2026-04-17 09:53 37.45863 24.67649 21818 ft 399 kts 290°
2026-04-17 09:53 37.46731 24.64350 21008 ft 394 kts 290°
2026-04-17 09:53 37.47587 24.61091 20198 ft 389 kts 290°
2026-04-17 09:54 37.48429 24.57880 19369 ft 384 kts 290°
2026-04-17 09:54 37.49261 24.54698 18538 ft 380 kts 289°
2026-04-17 09:54 37.50079 24.51557 17723 ft 375 kts 289°
2026-04-17 09:54 37.50874 24.48496 16910 ft 370 kts 289°
2026-04-17 09:55 37.51675 24.45422 16077 ft 366 kts 289°
2026-04-17 09:55 37.52469 24.42383 15249 ft 363 kts 290°
2026-04-17 09:55 37.53253 24.39378 14421 ft 359 kts 289°
2026-04-17 09:55 37.54027 24.36400 13607 ft 356 kts 289°
2026-04-17 09:56 37.54791 24.33455 12805 ft 352 kts 289°
2026-04-17 09:56 37.55413 24.30490 12016 ft 349 kts 280°
2026-04-17 09:56 37.55606 24.27462 11221 ft 345 kts 269°
2026-04-17 09:56 37.55478 24.24460 10446 ft 341 kts 267°
2026-04-17 09:57 37.55337 24.21492 9786 ft 334 kts 268°
2026-04-17 09:57 37.55206 24.18672 9612 ft 313 kts 269°
2026-04-17 09:57 37.55083 24.15970 9156 ft 305 kts 269°
2026-04-17 09:57 37.54963 24.13324 8600 ft 301 kts 270°
2026-04-17 09:58 37.54844 24.10738 8031 ft 298 kts 270°
2026-04-17 09:58 37.54727 24.08110 7457 ft 295 kts 271°
2026-04-17 09:58 37.54613 24.05573 6919 ft 292 kts 271°
2026-04-17 09:58 37.54497 24.03035 6354 ft 289 kts 271°
2026-04-17 09:59 37.54380 24.00512 6000 ft 287 kts 271°
2026-04-17 09:59 37.54262 23.98013 5666 ft 285 kts 272°
2026-04-17 09:59 37.54146 23.95536 5362 ft 282 kts 272°
2026-04-17 09:59 37.54027 23.93083 5037 ft 279 kts 272°
2026-04-17 10:00 37.53910 23.90663 4761 ft 275 kts 272°
2026-04-17 10:00 37.53796 23.88278 4449 ft 271 kts 272°
2026-04-17 10:00 37.53683 23.85930 4131 ft 267 kts 273°
2026-04-17 10:00 37.53571 23.83605 3813 ft 264 kts 273°
2026-04-17 10:01 37.53462 23.81310 3507 ft 261 kts 274°
2026-04-17 10:01 37.53394 23.79058 3318 ft 250 kts 281°
2026-04-17 10:01 37.53812 23.77039 3193 ft 229 kts 302°
2026-04-17 10:01 37.54698 23.75478 3086 ft 212 kts 320°
2026-04-17 10:02 37.55861 23.74443 2996 ft 200 kts 336°
2026-04-17 10:02 37.57168 23.73936 2997 ft 197 kts 351°
2026-04-17 10:02 37.58530 23.73814 3001 ft 196 kts 355°
2026-04-17 10:02 37.59895 23.73708 3001 ft 196 kts 354°
2026-04-17 10:03 37.61257 23.73600 3001 ft 196 kts 354°
2026-04-17 10:03 37.62619 23.73490 3002 ft 196 kts 354°
2026-04-17 10:03 37.63975 23.73380 3003 ft 195 kts 354°
2026-04-17 10:03 37.65314 23.73273 3003 ft 195 kts 354°
2026-04-17 10:04 37.66663 23.73167 3002 ft 195 kts 354°
2026-04-17 10:04 37.68017 23.73062 3006 ft 194 kts 354°
2026-04-17 10:04 37.69368 23.72956 3009 ft 194 kts 354°
2026-04-17 10:04 37.70720 23.72885 3010 ft 196 kts 360°
2026-04-17 10:05 37.72074 23.73233 3009 ft 211 kts 16°
2026-04-17 10:05 37.73445 23.74192 3007 ft 228 kts 27°
2026-04-17 10:05 37.74686 23.75338 3013 ft 213 kts 30°
2026-04-17 10:05 37.75815 23.76417 3000 ft 194 kts 29°
2026-04-17 10:06 37.76852 23.77401 3001 ft 177 kts 28°
2026-04-17 10:06 37.77786 23.78285 3030 ft 158 kts 27°
2026-04-17 10:06 37.78590 23.79049 3017 ft 135 kts 26°
2026-04-17 10:06 37.79298 23.79717 3015 ft 121 kts 25°
2026-04-17 10:07 37.79960 23.80339 3014 ft 116 kts 24°
2026-04-17 10:07 37.80611 23.80951 2999 ft 116 kts 24°
2026-04-17 10:07 37.81264 23.81566 2912 ft 117 kts 22°
2026-04-17 10:07 37.81927 23.82190 2791 ft 122 kts 21°
2026-04-17 10:08 37.82645 23.82864 2626 ft 135 kts 23°
2026-04-17 10:08 37.83432 23.83608 2450 ft 146 kts 28°
2026-04-17 10:08 37.84261 23.84400 2301 ft 152 kts 37°
2026-04-17 10:08 37.85109 23.85242 2256 ft 158 kts 37°
2026-04-17 10:09 37.86010 23.86026 2000 ft 153 kts 39°
2026-04-17 10:09 37.86839 23.86808 1799 ft 142 kts 41°
2026-04-17 10:09 37.87619 23.87510 1551 ft 133 kts 35°
2026-04-17 10:09 37.88300 23.88224 1301 ft 124 kts 37°
2026-04-17 10:10 37.88964 23.88874 1139 ft 120 kts 34°
2026-04-17 10:10 37.89636 23.89498 962 ft 119 kts 36°
2026-04-17 10:10 37.90301 23.90126 802 ft 120 kts 33°
2026-04-17 10:11 37.91629 23.91431 455 ft 123 kts 29°
2026-04-17 10:11 37.92321 23.92040 331 ft 121 kts 36°
2026-04-17 10:11 37.92926 23.92628 297 ft 98 kts 37°
2026-04-17 10:11 37.93323 23.93008 291 ft 49 kts 37°
2026-04-17 10:12 37.93543 23.93245 290 ft 38 kts 53°
2026-04-17 10:12 37.93625 23.93482 298 ft 11 kts 128°
2026-04-17 10:12 37.93555 23.93505 299 ft 11 kts 177°
2026-04-17 10:12 37.93489 23.93457 299 ft 13 kts 210°
2026-04-17 10:13 37.93412 23.93457 300 ft 13 kts 133°
2026-04-17 10:13 37.93361 23.93556 301 ft 15 kts 125°
2026-04-17 10:13 37.93293 23.93671 301 ft 17 kts 126°
2026-04-17 10:13 37.93214 23.93803 303 ft 20 kts 127°
2026-04-17 10:14 37.93122 23.93952 300 ft 23 kts 127°
2026-04-17 10:14 37.93154 23.94110 301 ft 23 kts 36°
2026-04-17 10:14 37.93282 23.94248 301 ft 25 kts 69°
2026-04-17 10:14 37.93198 23.94427 304 ft 26 kts 131°
2026-04-17 10:15 37.93223 23.94599 303 ft 21 kts 36°
2026-04-17 10:15 37.93275 23.94650 301 ft 4 kts 38°
2026-04-17 10:15 37.93301 23.94649 301 ft 4 kts 310°
2026-04-17 10:15 37.93316 23.94605 301 ft 7 kts 307°
2026-04-17 10:16 37.93332 23.94573 301 ft 0 kts 305°